Regional Weather Roundup
Issued by NWS

Home | Current Version | Previous Version | Text Only | Print | Product List | Glossary Off
Versions: 1 2 3 4 5 6 7 8 9 10 11 12 13 14 15 16 17 18 19 20 21 22 23 24 25 26 27 28 29 30 31 32 33 34 35 36 37 38 39 40 41 42 43 44 45 46 47 48 49

000
ASUS45 KBOI 040410
RWRID
WEATHER ROUNDUP FOR IDAHO
NATIONAL WEATHER SERVICE BOISE ID
900 PM MST TUE MAR 03 2015

NOTE: "FAIR" INDICATES FEW OR NO CLOUDS BELOW 12000 FEET
WITH NO SIGNIFICANT WEATHER AND/OR OBSTRUCTIONS TO VISIBILITY

IDZ012-014-040500-
SOUTHWEST IDAHO


CITY           SKY/WX    TMP DP  RH WIND       PRES   REMARKS
BOISE          CLEAR     34  14  43 NW6       30.05R WCI  29
CALDWELL       CLEAR     36  14  41 W6        30.09R WCI  31
MOUNTAIN HOME  CLEAR     33  12  42 W16       30.04R WCI  22
$$

IDZ016-017-040500-
SOUTHCENTRAL IDAHO


CITY           SKY/WX    TMP DP  RH WIND       PRES   REMARKS
BURLEY         MIX PCPN  30  13  49 W17G25    29.95R WCI  18
JEROME         CLEAR     29  11  47 SW17      29.97R WCI  17
TWIN FALLS     CLEAR     30  12  47 SW16      29.99R WCI  19
$$

IDZ019>023-040500-
SOUTHEAST IDAHO


CITY           SKY/WX    TMP DP  RH WIND       PRES   REMARKS
IDAHO FALLS    CLOUDY    25  10  53 SE5       29.95R WCI  19
POCATELLO      MOCLDY    24  14  65 S3        29.95R
REXBURG        CLOUDY    21   7  54 CALM      29.94S
$$

IDZ006-010-011-018-031-032-040500-
CENTRAL IDAHO MOUNTAINS


CITY           SKY/WX    TMP DP  RH WIND       PRES   REMARKS
MCCALL         CLEAR     22   7  52 N6        30.01R WCI  14
HAILEY         PTCLDY    25  18  74 NW6       29.90R WCI  18
STANLEY          N/A     19   3  49 VRB3      29.92R
SALMON         CLEAR     25   5  42 N8        30.02R WCI  16
CHALLIS        CLEAR     26   2  35 NW9       29.93R WCI  17
$$

IDZ002-004-006-007-026-040500-
NORTHERN IDAHO


CITY           SKY/WX    TMP DP  RH WIND       PRES   REMARKS
LEWISTON       CLEAR     32  18  56 MISG      30.19R
LOWELL           N/A     29  22  75 CALM      30.22R
COEUR D`ALENE  CLEAR     25  12  58 CALM      30.12R
MULLAN PASS    CLEAR     12   6  77 NW6       29.96R WCI   3
$$


USA.gov is the U.S. government's official web portal to all federal, state and local government web resources and services.